Time,TemperatureF,DewpointF,PressureIn,WindDirection,WindDirectionDegrees,WindSpeedMPH,WindSpeedGustMPH,Humidity,HourlyPrecipIn,Conditions,Clouds,dailyrainin,SoftwareType,DateUTC
2013-10-09 00:05:00,62.6,62.0,30.07,SE,139,0.0,5.0,98,0.23,,,2.11,weatherlink.com 1.10,2013-10-09 04:05:00,
2013-10-09 00:20:00,62.2,62.0,30.05,NNW,347,1.0,6.0,98,0.30,,,2.23,weatherlink.com 1.10,2013-10-09 04:20:00,
2013-10-09 00:35:00,61.9,61.0,30.04,WNW,283,9.0,11.0,98,0.32,,,0.05,weatherlink.com 1.10,2013-10-09 04:35:00,
2013-10-09 00:50:00,61.8,61.0,30.06,WNW,302,1.0,3.0,98,0.27,,,0.06,weatherlink.com 1.10,2013-10-09 04:50:00,
2013-10-09 01:05:00,61.5,61.0,30.06,WNW,294,1.0,5.0,98,0.27,,,0.12,weatherlink.com 1.10,2013-10-09 05:05:00,
2013-10-09 01:21:00,61.5,61.0,30.05,WNW,295,2.0,6.0,98,0.24,,,0.22,weatherlink.com 1.10,2013-10-09 05:21:00,
2013-10-09 01:36:00,61.5,61.0,30.05,WNW,302,1.0,4.0,98,0.23,,,0.28,weatherlink.com 1.10,2013-10-09 05:36:00,
2013-10-09 01:51:00,61.4,61.0,30.04,West,264,0.0,5.0,98,0.27,,,0.33,weatherlink.com 1.10,2013-10-09 05:51:00,
2013-10-09 02:06:00,61.4,61.0,30.04,North,349,1.0,6.0,98,0.25,,,0.37,weatherlink.com 1.10,2013-10-09 06:06:00,
2013-10-09 02:21:00,61.4,61.0,30.03,NW,304,2.0,5.0,99,0.17,,,0.39,weatherlink.com 1.10,2013-10-09 06:21:00,
2013-10-09 02:36:00,61.5,61.0,30.03,NNE,19,2.0,7.0,99,0.14,,,0.42,weatherlink.com 1.10,2013-10-09 06:36:00,
2013-10-09 02:51:00,61.6,61.0,30.02,WNW,288,0.0,7.0,99,0.12,,,0.45,weatherlink.com 1.10,2013-10-09 06:51:00,
2013-10-09 03:06:00,61.6,61.0,30.01,NW,312,1.0,7.0,99,0.11,,,0.48,weatherlink.com 1.10,2013-10-09 07:06:00,
2013-10-09 03:21:00,61.7,62.0,30.02,NW,320,2.0,3.0,99,0.12,,,0.51,weatherlink.com 1.10,2013-10-09 07:21:00,
2013-10-09 03:36:00,61.8,62.0,30.01,WNW,302,1.0,5.0,99,0.14,,,0.56,weatherlink.com 1.10,2013-10-09 07:36:00,
2013-10-09 03:51:00,61.9,62.0,30.00,NW,319,1.0,17.0,99,0.16,,,0.61,weatherlink.com 1.10,2013-10-09 07:51:00,
2013-10-09 04:06:00,62.0,62.0,30.00,NW,309,3.0,6.0,99,0.14,,,0.62,weatherlink.com 1.10,2013-10-09 08:06:00,
2013-10-09 04:21:00,62.1,62.0,29.99,NNW,335,1.0,7.0,99,0.13,,,0.64,weatherlink.com 1.10,2013-10-09 08:21:00,
2013-10-09 04:36:00,62.2,62.0,29.98,North,356,1.0,4.0,99,0.14,,,0.70,weatherlink.com 1.10,2013-10-09 08:36:00,
2013-10-09 04:51:00,62.4,62.0,29.98,NE,36,9.0,9.0,99,0.18,,,0.79,weatherlink.com 1.10,2013-10-09 08:51:00,
2013-10-09 05:06:00,62.5,62.0,29.98,NW,316,4.0,11.0,99,0.24,,,0.87,weatherlink.com 1.10,2013-10-09 09:06:00,
2013-10-09 05:21:00,62.7,63.0,29.98,ENE,70,3.0,6.0,99,0.27,,,0.92,weatherlink.com 1.10,2013-10-09 09:21:00,
2013-10-09 05:36:00,62.9,63.0,29.98,SW,219,2.0,6.0,99,0.25,,,0.95,weatherlink.com 1.10,2013-10-09 09:36:00,
2013-10-09 05:51:00,63.0,63.0,29.98,NNE,23,3.0,7.0,99,0.21,,,1.00,weatherlink.com 1.10,2013-10-09 09:51:00,
2013-10-09 06:06:00,63.1,63.0,29.97,WNW,300,1.0,8.0,99,0.13,,,1.01,weatherlink.com 1.10,2013-10-09 10:06:00,
2013-10-09 06:21:00,63.3,63.0,29.97,NNW,335,3.0,6.0,99,0.08,,,1.01,weatherlink.com 1.10,2013-10-09 10:21:00,
2013-10-09 06:36:00,63.5,63.0,29.97,NW,316,1.0,3.0,99,0.05,,,1.01,weatherlink.com 1.10,2013-10-09 10:36:00,
2013-10-09 06:51:00,63.8,64.0,29.97,NE,44,1.0,6.0,99,0.02,,,1.02,weatherlink.com 1.10,2013-10-09 10:51:00,
2013-10-09 07:06:00,64.1,64.0,29.96,ESE,113,1.0,7.0,99,0.05,,,1.06,weatherlink.com 1.10,2013-10-09 11:06:00,
2013-10-09 07:21:00,64.6,64.0,29.96,NE,55,2.0,7.0,99,0.07,,,1.08,weatherlink.com 1.10,2013-10-09 11:21:00,
2013-10-09 07:36:00,64.8,65.0,29.96,North,4,4.0,7.0,99,0.08,,,1.09,weatherlink.com 1.10,2013-10-09 11:36:00,
2013-10-09 07:51:00,65.0,65.0,29.97,NW,322,2.0,6.0,99,0.13,,,1.15,weatherlink.com 1.10,2013-10-09 11:51:00,
2013-10-09 08:06:00,65.1,65.0,29.97,ENE,78,1.0,5.0,99,0.16,,,1.22,weatherlink.com 1.10,2013-10-09 12:06:00,
2013-10-09 08:21:00,65.1,65.0,29.97,ESE,120,1.0,6.0,99,0.28,,,1.36,weatherlink.com 1.10,2013-10-09 12:21:00,
2013-10-09 08:36:00,65.0,65.0,29.97,NW,319,2.0,6.0,99,0.34,,,1.44,weatherlink.com 1.10,2013-10-09 12:36:00,
2013-10-09 08:51:00,65.1,65.0,29.96,NW,309,4.0,8.0,99,0.33,,,1.48,weatherlink.com 1.10,2013-10-09 12:51:00,
2013-10-09 09:06:00,65.2,65.0,29.96,NW,318,2.0,9.0,99,0.26,,,1.48,weatherlink.com 1.10,2013-10-09 13:06:00,
2013-10-09 09:21:00,65.3,65.0,29.96,NW,314,1.0,8.0,99,0.09,,,1.48,weatherlink.com 1.10,2013-10-09 13:21:00,
2013-10-09 09:36:00,65.3,65.0,29.96,WNW,287,1.0,10.0,99,0.05,,,1.49,weatherlink.com 1.10,2013-10-09 13:36:00,
2013-10-09 09:51:00,65.6,65.0,29.96,WNW,295,1.0,8.0,99,0.01,,,1.49,weatherlink.com 1.10,2013-10-09 13:51:00,
2013-10-09 10:06:00,65.8,66.0,29.96,NW,323,8.0,9.0,99,0.02,,,1.50,weatherlink.com 1.10,2013-10-09 14:06:00,
2013-10-09 10:21:00,65.8,66.0,29.96,NNW,338,1.0,9.0,99,0.04,,,1.52,weatherlink.com 1.10,2013-10-09 14:21:00,
2013-10-09 10:36:00,65.9,66.0,29.97,SW,224,2.0,6.0,99,0.04,,,1.53,weatherlink.com 1.10,2013-10-09 14:36:00,
2013-10-09 10:51:00,66.0,66.0,29.97,NNE,13,2.0,7.0,99,0.04,,,1.53,weatherlink.com 1.10,2013-10-09 14:51:00,
2013-10-09 11:06:00,66.1,66.0,29.96,NE,48,5.0,8.0,99,0.03,,,1.53,weatherlink.com 1.10,2013-10-09 15:06:00,
2013-10-09 11:21:00,66.3,66.0,29.97,North,9,3.0,7.0,99,0.01,,,1.53,weatherlink.com 1.10,2013-10-09 15:21:00,
2013-10-09 11:36:00,66.3,66.0,29.97,NW,314,2.0,7.0,99,0.00,,,1.53,weatherlink.com 1.10,2013-10-09 15:36:00,
2013-10-09 11:51:00,66.4,66.0,29.96,WNW,290,4.0,9.0,98,0.00,,,1.53,weatherlink.com 1.10,2013-10-09 15:51:00,
2013-10-09 12:06:00,66.5,66.0,29.96,NW,316,5.0,6.0,98,0.01,,,1.54,weatherlink.com 1.10,2013-10-09 16:06:00,
2013-10-09 12:21:00,66.4,66.0,29.96,WNW,283,3.0,10.0,98,0.02,,,1.55,weatherlink.com 1.10,2013-10-09 16:21:00,
2013-10-09 12:36:00,66.5,66.0,29.95,WNW,299,2.0,9.0,98,0.02,,,1.55,weatherlink.com 1.10,2013-10-09 16:36:00,
2013-10-09 12:52:00,66.3,66.0,29.95,North,349,0.0,10.0,98,0.02,,,1.55,weatherlink.com 1.10,2013-10-09 16:52:00,
2013-10-09 13:07:00,66.2,66.0,29.95,ENE,57,3.0,6.0,98,0.01,,,1.55,weatherlink.com 1.10,2013-10-09 17:07:00,
2013-10-09 13:22:00,66.2,66.0,29.95,NW,321,3.0,7.0,98,0.00,,,1.55,weatherlink.com 1.10,2013-10-09 17:22:00,
2013-10-09 13:37:00,66.3,66.0,29.94,WNW,295,3.0,10.0,98,0.00,,,1.55,weatherlink.com 1.10,2013-10-09 17:37:00,
2013-10-09 13:52:00,66.3,66.0,29.93,NNW,330,2.0,6.0,98,0.01,,,1.56,weatherlink.com 1.10,2013-10-09 17:52:00,
2013-10-09 14:07:00,66.4,66.0,29.93,NW,305,0.0,9.0,98,0.01,,,1.56,weatherlink.com 1.10,2013-10-09 18:07:00,
2013-10-09 14:22:00,66.1,66.0,29.93,WNW,282,2.0,8.0,98,0.01,,,1.56,weatherlink.com 1.10,2013-10-09 18:22:00,
2013-10-09 14:37:00,66.0,66.0,29.92,West,262,1.0,6.0,98,0.01,,,1.56,weatherlink.com 1.10,2013-10-09 18:37:00,
2013-10-09 14:52:00,65.8,65.0,29.93,NE,51,3.0,8.0,98,0.00,,,1.56,weatherlink.com 1.10,2013-10-09 18:52:00,
2013-10-09 15:07:00,65.8,65.0,29.92,NW,312,4.0,7.0,98,0.00,,,1.56,weatherlink.com 1.10,2013-10-09 19:07:00,
2013-10-09 15:22:00,65.7,65.0,29.92,NW,323,2.0,7.0,98,0.01,,,1.57,weatherlink.com 1.10,2013-10-09 19:22:00,
2013-10-09 15:37:00,65.5,65.0,29.92,NE,34,0.0,9.0,98,0.03,,,1.59,weatherlink.com 1.10,2013-10-09 19:37:00,
2013-10-09 15:52:00,65.3,65.0,29.92,NW,315,1.0,10.0,98,0.04,,,1.60,weatherlink.com 1.10,2013-10-09 19:52:00,
2013-10-09 16:07:00,65.2,65.0,29.92,NW,307,6.0,11.0,98,0.05,,,1.61,weatherlink.com 1.10,2013-10-09 20:07:00,
2013-10-09 16:22:00,65.0,65.0,29.92,WNW,297,3.0,8.0,98,0.05,,,1.62,weatherlink.com 1.10,2013-10-09 20:22:00,
2013-10-09 16:37:00,64.9,64.0,29.91,WNW,297,5.0,12.0,98,0.06,,,1.65,weatherlink.com 1.10,2013-10-09 20:37:00,
2013-10-09 16:52:00,64.6,64.0,29.91,NNW,329,1.0,8.0,98,0.08,,,1.68,weatherlink.com 1.10,2013-10-09 20:52:00,
2013-10-09 17:07:00,64.3,64.0,29.91,North,359,6.0,6.0,98,0.09,,,1.70,weatherlink.com 1.10,2013-10-09 21:07:00,
2013-10-09 17:22:00,64.1,64.0,29.91,SE,143,2.0,7.0,98,0.09,,,1.71,weatherlink.com 1.10,2013-10-09 21:22:00,
2013-10-09 17:37:00,63.9,63.0,29.91,WNW,291,2.0,11.0,98,0.10,,,1.75,weatherlink.com 1.10,2013-10-09 21:37:00,
2013-10-09 17:52:00,63.8,63.0,29.90,WNW,302,2.0,7.0,98,0.09,,,1.77,weatherlink.com 1.10,2013-10-09 21:52:00,
2013-10-09 18:07:00,63.6,63.0,29.91,NNE,18,2.0,7.0,98,0.08,,,1.78,weatherlink.com 1.10,2013-10-09 22:07:00,
2013-10-09 18:22:00,63.5,63.0,29.91,WNW,285,2.0,6.0,98,0.07,,,1.78,weatherlink.com 1.10,2013-10-09 22:22:00,
2013-10-09 18:37:00,63.3,63.0,29.91,NW,312,3.0,7.0,99,0.04,,,1.79,weatherlink.com 1.10,2013-10-09 22:37:00,
2013-10-09 18:52:00,63.3,63.0,29.90,NNE,32,1.0,11.0,99,0.02,,,1.79,weatherlink.com 1.10,2013-10-09 22:52:00,
2013-10-09 19:07:00,63.3,63.0,29.90,West,280,6.0,10.0,99,0.02,,,1.80,weatherlink.com 1.10,2013-10-09 23:07:00,
2013-10-09 19:22:00,63.3,63.0,29.89,WNW,299,2.0,8.0,99,0.02,,,1.80,weatherlink.com 1.10,2013-10-09 23:22:00,
2013-10-09 19:37:00,63.3,63.0,29.89,West,278,0.0,10.0,99,0.01,,,1.80,weatherlink.com 1.10,2013-10-09 23:37:00,
2013-10-09 19:52:00,63.3,63.0,29.89,NW,321,1.0,6.0,99,0.01,,,1.80,weatherlink.com 1.10,2013-10-09 23:52:00,
2013-10-09 20:07:00,63.2,63.0,29.89,NW,316,1.0,7.0,99,0.00,,,1.80,weatherlink.com 1.10,2013-10-10 00:07:00,
2013-10-09 20:22:00,63.2,63.0,29.89,WNW,287,2.0,9.0,99,0.00,,,1.80,weatherlink.com 1.10,2013-10-10 00:22:00,
2013-10-09 20:37:00,63.3,63.0,29.89,East,89,4.0,7.0,99,0.00,,,1.80,weatherlink.com 1.10,2013-10-10 00:37:00,
2013-10-09 21:07:00,63.4,63.0,29.89,SW,218,2.0,7.0,99,0.00,,,1.80,weatherlink.com 1.10,2013-10-10 01:07:00,
2013-10-09 21:22:00,63.4,63.0,29.89,NNE,30,1.0,9.0,99,0.00,,,1.80,weatherlink.com 1.10,2013-10-10 01:22:00,
2013-10-09 21:37:00,63.3,63.0,29.89,NNW,344,2.0,9.0,99,0.00,,,1.80,weatherlink.com 1.10,2013-10-10 01:37:00,
2013-10-09 21:52:00,63.3,63.0,29.89,NW,311,5.0,8.0,99,0.00,,,1.80,weatherlink.com 1.10,2013-10-10 01:52:00,
2013-10-09 22:07:00,63.4,63.0,29.89,North,5,2.0,9.0,99,0.00,,,1.80,weatherlink.com 1.10,2013-10-10 02:07:00,
2013-10-09 22:22:00,63.4,63.0,29.89,NE,49,3.0,7.0,99,0.00,,,1.80,weatherlink.com 1.10,2013-10-10 02:22:00,
2013-10-09 22:37:00,63.4,63.0,29.89,NW,324,1.0,6.0,99,0.00,,,1.80,weatherlink.com 1.10,2013-10-10 02:37:00,
2013-10-09 22:53:00,63.5,63.0,29.88,NW,315,2.0,7.0,98,0.00,,,1.80,weatherlink.com 1.10,2013-10-10 02:53:00,
2013-10-09 23:07:00,63.4,63.0,29.88,NW,316,2.0,10.0,98,0.00,,,1.80,weatherlink.com 1.10,2013-10-10 03:07:00,
2013-10-09 23:22:00,63.3,63.0,29.88,WNW,300,6.0,6.0,98,0.00,,,1.80,weatherlink.com 1.10,2013-10-10 03:22:00,
2013-10-09 23:37:00,63.3,63.0,29.88,NW,315,1.0,9.0,98,0.00,,,1.80,weatherlink.com 1.10,2013-10-10 03:37:00,
2013-10-09 23:52:00,63.2,63.0,29.88,NE,56,0.0,7.0,98,0.00,,,1.80,weatherlink.com 1.10,2013-10-10 03:52:00,